www.pogodaiklimat.ru

Погода и климат >> Архив погоды >> Коморские Острова >> Дзаудзи


ПОГОДА в Дзаудзи

  • Прогноз погоды в Дзаудзи
  • Монитор погоды в Дзаудзи

АРХИВ ПОГОДЫ в Дзаудзи

Время (UTC), дата Ветер
(напр.,м/с)
 
Видим.   Явления Облачность Т
(С)
Тd
(С)
f
(%)
Тe
(С)
Тes
(С)
Комфортность P
(гПа)
Po
(гПа)
Тmin
(С)
Tmax
(С)
R
(мм)
R24
(мм)
S
(см)
00 10.09 Ю 7
{9}
20 км н/о +25.1 +22.2 84 +33 +33 очень
душно
1015.5 1014.7
03 10.09 Ю 7
{10}
20 км н/о +25.2 +22.7 86 +33 +33 очень
душно
1016.4 1015.6
06 10.09 Ю 6
{11}
20 км 9/9 300 м
[]
+28.3 +22.3 70 +37 +37 очень
душно
1017.6 1016.8 +24.4
09 10.09 ЮВ 5
{8}
19 км н/о +28.5 +22.5 70 +37 +37 очень
душно
1016.4 1015.6
12 10.09 ЮВ 4
{6}
18 км н/о +28.5 +22.5 70 +37 +37 очень
душно
1014.5 1013.7
15 10.09 В 2
{4}
20 км н/о +26.2 +22.1 78 +34 +34 очень
душно
1015.3 1014.5
18 10.09 штиль 0
{2}
20 км н/о +23.8 +21.5 87 +30 +30 очень
душно
1016.8 1016.0 +29.5
21 10.09 С 2
{2}
20 км н/о +23.1 +21.5 91 +31 +31 очень
душно
1016.4 1015.6
00 11.09 С 2
{5}
19 км н/о +23.8 +22.4 92 +31 +31 очень
душно
1015.2 1014.4
03 11.09 ЮЗ 3
{4}
20 км н/о +22.8 +22.0 95 +31 +31 очень
душно
1016.1 1015.3
06 11.09 Ю 3
{5}
20 км н/о +27.4 +23.0 77 +37 +37 очень
душно
1017.8 1017.0 +22.7
12 11.09 ЮВ 4
{6}
19 км 9/9 300 м
[]
+27.7 +22.4 73 +36 +37 очень
душно
1014.9 1014.1
15 11.09 ЮВ 3
{5}
20 км н/о +25.9 +21.6 77 +33 +33 очень
душно
1016.0 1015.2
18 11.09 В 1
{3}
20 км н/о +24.4 +21.3 83 +31 +31 очень
душно
1017.8 1017.0 +29.6
21 11.09 С 2
{3}
19 км н/о +23.3 +21.7 91 +32 +32 очень
душно
1017.2 1016.4
00 12.09 С 1
{2}
19 км н/о +22.5 +21.7 95 +30 +30 очень
душно
1015.9 1015.1
03 12.09 СЗ 1
{2}
7000 м н/о +21.9 +21.2 96 +28 +28 душно 1016.6 1015.8
06 12.09 ЮЗ 2
{4}
20 км н/о +27.9 +23.1 75 +37 +37 очень
душно
1018.6 1017.8 +21.9
09 12.09 Ю 3
{5}
20 км н/о +27.7 +21.5 69 +35 +35 очень
душно
1017.6 1016.8
12 12.09 Ю 3
{5}
20 км н/о +28.3 +21.6 67 +36 +36 очень
душно
1015.7 1014.9
15 12.09 ЮВ 2
{3}
20 км н/о +26.0 +21.9 78 +33 +33 очень
душно
1016.4 1015.6
18 12.09 ЮВ 1
{2}
20 км н/о +24.6 +21.1 81 +31 +31 очень
душно
1017.8 1017.0 +29.3
21 12.09 З 2
{3}
20 км н/о +23.8 +22.2 91 +31 +31 очень
душно
1017.1 1016.3
00 13.09 С 1
{2}
20 км н/о +22.3 +21.3 94 +29 +29 очень
душно
1015.9 1015.1
03 13.09 штиль 0
{1}
18 км н/о +21.6 +21.3 98 +28 +28 очень
душно
1016.6 1015.8
06 13.09 Ю 3
{4}
20 км н/о +27.6 +22.8 75 +37 +37 очень
душно
1018.4 1017.6 +21.4
09 13.09 Ю 3
{5}
19 км н/о +28.8 +22.3 68 +38 +38 очень
душно
1017.3 1016.5
12 13.09 ЮВ 2
{4}
20 км н/о +27.6 +21.9 71 +36 +36 очень
душно
1015.3 1014.5
15 13.09 В 1
{3}
19 км н/о +25.8 +21.2 76 +33 +33 очень
душно
1015.9 1015.1
18 13.09 С 2
{2}
20 км н/о +23.5 +20.8 85 +29 +29 душно 1016.6 1015.8 +30.3
21 13.09 С 1
{2}
20 км н/о +22.2 +20.7 91 +29 +29 очень
душно
1016.0 1015.2
00 14.09 С 2
{3}
20 км н/о +21.8 +20.6 93 +28 +28 душно 1015.4 1014.6
06 14.09 Ю 3
{5}
20 км н/о +27.9 +22.6 73 +37 +37 очень
душно
1018.2 1017.4 +21.1
09 14.09 Ю 3
{5}
20 км н/о +28.8 +21.8 66 +37 +37 очень
душно
1016.8 1016.0
12 14.09 Ю 4
{7}
20 км н/о +28.9 +22.2 67 +38 +38 очень
душно
1015.0 1014.2
15 14.09 Ю 3
{6}
20 км н/о +26.1 +22.0 78 +34 +34 очень
душно
1015.7 1014.9
18 14.09 З 3
{5}
20 км н/о +25.4 +22.3 83 +33 +33 очень
душно
1017.2 1016.4 +29.4
21 14.09 З 2
{3}
20 км н/о +24.0 +21.9 88 +31 +31 очень
душно
1016.6 1015.8
00 15.09 З 2
{3}
20 км н/о +22.8 +21.3 91 +30 +30 очень
душно
1015.8 1015.0
03 15.09 ЮЗ 3
{4}
20 км 9/9 1000 м
[]
+23.8 +22.4 92 +31 +31 очень
душно
1016.7 1015.9
06 15.09 Ю 5
{7}
20 км н/о +28.0 +23.4 76 +38 +38 очень
душно
1018.1 1017.3 +22.6
09 15.09 Ю 5
{8}
20 км н/о +29.0 +23.0 70 +39 +39 очень
душно
1016.8 1016.0
12 15.09 Ю 7
{10}
20 км н/о +28.7 +21.7 66 +37 +37 очень
душно
1015.2 1014.4
15 15.09 Ю 6
{9}
20 км н/о +26.2 +22.1 78 +34 +34 очень
душно
1016.2 1015.4
18 15.09 ЮЗ 3
{5}
20 км н/о +25.2 +22.3 84 +33 +33 очень
душно
1017.4 1016.6 +29.8
21 15.09 З 3
{4}
20 км н/о +24.3 +22.2 88 +32 +32 очень
душно
1016.4 1015.6
00 16.09 Ю 2
{3}
20 км н/о +24.0 +22.4 91 +31 +31 очень
душно
1015.1 1014.3
03 16.09 ЮЗ 2
{3}
20 км н/о +23.9 +22.9 94 +32 +32 очень
душно
1015.4 1014.6
06 16.09 Ю 3
{5}
20 км н/о +28.1 +22.6 72 +37 +37 очень
душно
1016.6 1015.8 +23.0
09 16.09 Ю 4
{6}
20 км н/о +28.7 +23.1 72 +39 +39 очень
душно
1015.4 1014.6
12 16.09 Ю 4
{6}
20 км н/о +29.4 +22.9 68 +39 +39 очень
душно
1014.1 1013.3
15 16.09 З 3
{5}
20 км 9/9 600 м
[]
+26.9 +22.5 77 +35 +35 очень
душно
1014.7 1013.9
18 16.09 З 4
{6}
20 км н/о +25.8 +22.5 82 +34 +34 очень
душно
1016.0 1015.2 +29.8

 

Местоположение метеостанции Дзаудзи (Коморские Острова): широта -12.80 долгота 45.28 высота над уровнем моря 7 м.

В архиве по умолчанию представлена погода в Дзаудзи за последнюю неделю. Архивные данные за месяц целиком и за предыдущие месяцы, начиная с января 2011 года, Вы можете получить, выбрав интересующий диапазон дат из раскрывающегося списка и нажав кнопку "Ввод!".


*Определитесь, кто Вы:
робот инопланетянин человек

Внимание! Время в таблицах - всемирное. Для получения местного времени необходимо прибавить поправку, которая равна 3 ч.

Смотрите также архив погоды в соседних городах и на ближайших метеорологических станциях:

Погода на Острове Глорьёз (Реюньон) (254 км)
Погода в Морони (Коморские Острова) (260 км)
Погода в Аэропорту Fascene (Мадагаскар) (334 км)
Погода в Махадзанге (Мадагаскар) (338 км)
Погода в Анцухихи (Мадагаскар) (372 км)
Погода в Анциранане (Мадагаскар) (439 км)
Погода в Бесалампи (Мадагаскар) (448 км)
Погода в Пембе (Мадагаскар) (515 км)
Погода на Острове Жуан-ди-Нова (Реюньон) (543 км)
Погода в Самбаве (Мадагаскар) (554 км)

Пояснения к столбцам:

Ветер - указаны скорость ветра в м/с - средняя за 10 мин, порывы в срок и между сроками (в фигурных скобках) и направление, откуда дует ветер: С - северный, СВ - северо-восточный, В - восточный, ЮВ - юго-восточный, Ю - южный, ЮЗ - юго-западный, З - западный, СЗ - северо-западный.
Видимость - горизонтальная дальность видимости в метрах или километрах. При видимости от 1 до 10 км при отсутствии осадков обычно наблюдается дымка, при ухудшении видимости до 1 км и менее - туман. В сухую погоду видимость может ухудшаться дымом, пылью или мглою.
Явления - указаны атмосферные явления, наблюдавшиеся в срок или в последний час перед сроком; фигурными скобками обозначены явления, наблюдавшиеся между сроками (за 1-3 часа до срока); квадратными скобками обозначены град или гололедные отложения с указанием их диаметра в мм.
Облачность - указаны через наклонную черту общая и нижняя облачность в баллах и высота нижней границы облаков в метрах; квадратными скобками обозначены формы облаков: Ci - перистые, Cs - перисто-слоистые, Cc - перисто-кучевые, Ac - высококучевые, As - высокослоистые, Sc - слоисто-кучевые, Ns - слоисто-дождевые, Cu - кучевые, Cb - кучево-дождевые. Подробнее классификацию облаков см. в Атласе облаков (PDF).
T - Температура воздуха - температура, измеренная на высоте 2 м над землей.
Td - Температура точки росы - температура, при понижении до которой содержащийся в воздухе водяной пар достигнет насыщения.
f - Относительная влажность воздуха - влажноcть воздуха, измеренная на высоте 2 м над землей.
Te - Эффективная температура - температура, которую ощущает одетый по сезону человек в тени. Характеристика душности погоды. При расчете учитывается влияние влажности воздуха и скорости ветра на теплоощущения человека.
Tes - Эффективная температура на солнце - температура, которую ощущает человек, с поправкой на солнечный нагрев. Характеристика знойности погоды. Зависит от высоты солнца над горизонтом, облачности и скорости ветра. Ночью, в пасмурную погоду, а также при ветре 12 м/с и более поправка равна нулю.
P - Атмосферное давление - приведенное к уровню моря атмосферное давление.
Po - Атмосферное давление - измеренное на уровне метеостанции атмосферное давление.
Tmin - Минимальная температура - минимум температуры воздуха на высоте 2 м над землей.
Tmax - Максимальная температура - максимум температуры воздуха на высоте 2 м над землей.
R - Количество осадков - Количество выпавших осадков за период времени, мм. При наведении курсора мыши на число - период времени, за который выпало указанное количество осадков.
R24 - Количество осадков - Количество выпавших осадков за 24 часа, мм.
S - Снежный покров - Высота снежного покрова, см. При наведении курсора мыши на число - состояние снежного покрова и степень покрытия местности в баллах.